Location: Unspecified
(0.0000°N, 0.0000°E)
Time: 00:03:35
(UTC+00:00)

A-11 Canister half - Pass Details

Date: 08 February 2023
Orbit: 1526 x 1682 km, 47.3° (Epoch: 29 March)

Event Time Altitude Azimuth Distance (km) Brightness Sun altitude
Rises 11:30:01 0° 344° (NNW) 4,750 11.4 71.5°
Reaches altitude 10° 11:33:54 10° 358° (N) 3,793 11.0 72.0°
Maximum altitude 11:41:20 25° 49° (NE) 2,858 10.7 73.0°
Drops below altitude 10° 11:48:54 10° 99° (E) 3,894 11.4 73.8°
Sets 11:52:53 0° 112° (ESE) 4,903 11.8 74.1°
